Location: D?uga
(50.2667°N, 19.7833°E)
Time: 02:01:45
(UTC+00:00)

Cosmos 1346 Rocket - Pass Details

Date: 23 May 2024
Orbit: 508 x 521 km, 81.2° (Epoch: 18 June)

Event Time Altitude Azimuth Distance (km) Brightness Sun altitude
Rises 00:40:03 0° 333° (NNW) 2,661 6.8 -14.1°
Reaches altitude 10° 00:42:44 10° 314° (NW) 1,768 5.6 -13.9°
Maximum altitude 00:45:21 18° 272° (W) 1,350 4.5 -13.7°
Enters shadow 00:46:25 16° 251° (WSW) 1,426 4.5 -13.6°
